Weather in Sinaia

Romania     45°20′59″N   25°32′56″E
temp.,
°C
wind,
m/s
gust,
m/s
humid.,
%
clouds,
%
prec.,
mm/h
press.,
hPa
HPBL,
m
24 october, sun
sun2400:00+4n5876100 0.1 1025303
03:00+4n4773100 0.1 1026308
06:00+3n367484 0.0 1028325
09:00+3nnw24733 0.0 1030242
12:00+8wsw12455 0.0 10301435
15:00+9s123954 0.0 10291702
18:00+5nne125826 0.0 103027
21:00+2n33672 0.0 103457
25 october, mon
mon2500:00+1nne22664 0.0 103518
03:00+1nw017927 0.0 103515
06:000nnw11873 0.0 103410
09:00+1sw01762 0.0 1034114
12:00+5s22593 0.0 1033671
15:00+7s21534 0.0 1031796
18:00+3s11743 0.0 103114
21:00+1nne11821 0.0 103211
26 october, tue
tue2600:000n11811 0.0 103214
03:000n11792 0.0 103213
06:00−1n11771 0.0 103013
09:00+1ene11660 0.0 102984
12:00+6sse23511 0.0 1028557
15:00+7sse22542 0.0 1026677
18:00+2sse11801 0.0 102613
21:000n11900 0.0 102717
27 october, wed
wed2700:00+1nnw219136 0.0 102717
03:00+1nw119061 0.0 102615
06:00+1nnw2270100 0.0 102516
09:00+3n235896 0.0 102557
12:00+9se124026 0.0 1023668
15:00+11sse12408 0.0 1022931
18:00+5n226413 0.0 102535
21:00+2n35700 0.0 102881
28 october, thu
thu2800:00+2n33690 0.0 102945
03:00+2n33678 0.0 102946
06:00+2n3264100 0.0 102933
09:00+4n215989 0.0 103025
12:00+9s22453 0.0 1029922
15:00+10s32460 0.0 1027960
18:00+5s11700 0.0 102910
21:00+4n21770 0.0 103013